| time (UTC) | temp C | wind direction | speed KPH | gust KPH | rain 1hr cm | rain 24hr cm | rain mn cm | humidity % | barometer mb |
| 20260507143041 | 24 | 0.0 | 0.0 | 0.00 | 0.00 | 0.00 | 38 | 1010.3 | |
| 20260507142043 | 23 | 0.0 | 0.0 | 0.00 | 0.00 | 0.00 | 40 | 1010.3 | |
| 20260507141020 | 22 | 0.0 | 0.0 | 0.00 | 0.00 | 0.00 | 42 | 1010.2 | |
| 20260507140022 | 21 | 0.0 | 0.0 | 0.00 | 0.00 | 0.00 | 43 | 1010.2 | |
| 20260507135019 | 19 | 0.0 | 0.0 | 0.00 | 0.00 | 0.00 | 46 | 1010.1 | |
| 20260507134021 | 17 | 0.0 | 0.0 | 0.00 | 0.00 | 0.00 | 50 | 1010.0 | |
| 20260507133023 | 15 | 0.0 | 0.0 | 0.00 | 0.00 | 0.00 | 53 | 1009.9 | |
| 20260507132045 | 15 | 0.0 | 0.0 | 0.00 | 0.00 | 0.00 | 55 | 1009.8 | |
| 20260507131022 | 15 | 0.0 | 0.0 | 0.00 | 0.00 | 0.00 | 56 | 1009.7 | |
| 20260507130024 | 14 | 0.0 | 0.0 | 0.00 | 0.00 | 0.00 | 55 | 1009.5 | |
| 20260507125026 | 15 | 0.0 | 0.0 | 0.00 | 0.00 | 0.00 | 54 | 1009.5 | |
| 20260507124028 | 15 | 0.0 | 0.0 | 0.00 | 0.00 | 0.00 | 55 | 1009.5 | |
| 20260507123026 | 15 | 0.0 | 0.0 | 0.00 | 0.00 | 0.00 | 55 | 1009.5 | |
| 20260507122028 | 15 | 0.0 | 0.0 | 0.00 | 0.00 | 0.00 | 54 | 1009.6 | |
| 20260507121044 | 15 | 0.0 | 0.0 | 0.00 | 0.00 | 0.00 | 55 | 1009.5 | |
| 20260507120020 | 15 | 0.0 | 0.0 | 0.00 | 0.00 | 0.00 | 53 | 1009.8 | |
| 20260507115057 | 15 | 0.0 | 0.0 | 0.00 | 0.00 | 0.00 | 54 | 1009.7 | |
| 20260507114039 | 15 | 0.0 | 0.0 | 0.00 | 0.00 | 0.00 | 54 | 1009.8 | |
| 20260507113021 | 15 | 0.0 | 0.0 | 0.00 | 0.00 | 0.00 | 54 | 1010.0 | |
| 20260507112043 | 15 | 0.0 | 0.0 | 0.00 | 0.00 | 0.00 | 51 | 1010.0 | |
| 20260507111026 | 15 | 0.0 | 0.0 | 0.00 | 0.00 | 0.00 | 52 | 1009.9 | |
| 20260507110048 | 15 | 0.0 | 0.0 | 0.00 | 0.00 | 0.00 | 52 | 1010.1 | |
| 20260507105029 | 16 | 0.0 | 0.0 | 0.00 | 0.00 | 0.00 | 51 | 1010.0 | |
| 20260507104032 | 16 | 0.0 | 0.0 | 0.00 | 0.00 | 0.00 | 51 | 1010.1 | |
| 20260507103036 | 16 | 0.0 | 0.0 | 0.00 | 0.00 | 0.00 | 50 | 1010.3 | |
| 20260507102018 | 16 | 0.0 | 0.0 | 0.00 | 0.00 | 0.00 | 50 | 1010.3 | |
| 20260507101100 | 16 | 0.0 | 0.0 | 0.00 | 0.00 | 0.00 | 51 | 1010.4 | |
| 20260507100022 | 16 | 0.0 | 0.0 | 0.00 | 0.00 | 0.00 | 52 | 1010.2 | |
| 20260507095024 | 17 | 0.0 | 0.0 | 0.00 | 0.00 | 0.00 | 51 | 1010.3 | |
| 20260507094026 | 17 | 0.0 | 0.0 | 0.00 | 0.00 | 0.00 | 48 | 1010.4 | |
| 20260507093043 | 16 | 0.0 | 0.0 | 0.00 | 0.00 | 0.00 | 50 | 1010.5 | |
| 20260507092019 | 16 | 0.0 | 0.0 | 0.00 | 0.00 | 0.00 | 50 | 1010.3 | |
| 20260507091015 | 16 | 0.0 | 0.0 | 0.00 | 0.00 | 0.00 | 50 | 1010.3 | |
| 20260507090017 | 16 | 0.0 | 0.0 | 0.00 | 0.00 | 0.00 | 50 | 1010.3 | |
| 20260507085032 | 16 | 0.0 | 0.0 | 0.00 | 0.00 | 0.00 | 51 | 1010.3 | |
| 20260507084016 | 17 | 0.0 | 0.0 | 0.00 | 0.00 | 0.00 | 50 | 1010.5 | |
| 20260507083018 | 17 | 0.0 | 0.0 | 0.00 | 0.00 | 0.00 | 49 | 1010.6 | |
| 20260507082022 | 17 | 0.0 | 0.0 | 0.00 | 0.00 | 0.00 | 47 | 1010.7 | |
| 20260507081024 | 17 | 0.0 | 0.0 | 0.00 | 0.00 | 0.00 | 47 | 1010.7 | |
| 20260507080026 | 17 | 0.0 | 0.0 | 0.00 | 0.00 | 0.00 | 47 | 1010.4 | |
| 20260507075028 | 17 | 0.0 | 0.0 | 0.00 | 0.00 | 0.00 | 45 | 1010.4 | |
| 20260507074025 | 17 | 0.0 | 0.0 | 0.00 | 0.00 | 0.00 | 45 | 1010.5 | |
| 20260507073048 | 18 | 0.0 | 0.0 | 0.00 | 0.00 | 0.00 | 45 | 1010.6 | |
| 20260507072029 | 18 | 0.0 | 0.0 | 0.00 | 0.00 | 0.00 | 49 | 1010.4 | |
| 20260507071033 | 18 | 0.0 | 0.0 | 0.00 | 0.00 | 0.00 | 45 | 1010.4 | |
| 20260507070017 | 18 | 0.0 | 0.0 | 0.00 | 0.00 | 0.00 | 45 | 1010.4 | |
| 20260507065039 | 18 | 0.0 | 0.0 | 0.00 | 0.00 | 0.00 | 43 | 1010.4 | |
| 20260507064021 | 19 | 0.0 | 0.0 | 0.00 | 0.00 | 0.00 | 44 | 1010.4 | |
| 20260507063017 | 18 | 0.0 | 0.0 | 0.00 | 0.00 | 0.00 | 45 | 1010.4 | |
| 20260507062105 | 19 | 0.0 | 0.0 | 0.00 | 0.00 | 0.00 | 45 | 1010.3 | |
| 20260507061027 | 19 | 0.0 | 0.0 | 0.00 | 0.00 | 0.00 | 43 | 1010.1 | |
| 20260507060029 | 20 | 0.0 | 0.0 | 0.00 | 0.00 | 0.00 | 43 | 1010.2 | |
| 20260507055032 | 20 | 0.0 | 0.0 | 0.00 | 0.00 | 0.00 | 44 | 1010.6 | |
| 20260507054015 | 20 | 0.0 | 0.0 | 0.00 | 0.00 | 0.00 | 42 | 1010.7 | |
| 20260507053018 | 20 | 0.0 | 0.0 | 0.00 | 0.00 | 0.00 | 41 | 1010.8 | |
| 20260507052020 | 20 | 0.0 | 0.0 | 0.00 | 0.00 | 0.00 | 41 | 1010.5 | |
| 20260507051023 | 20 | 0.0 | 0.0 | 0.00 | 0.00 | 0.00 | 42 | 1010.4 | |
| 20260507050024 | 20 | 0.0 | 0.0 | 0.00 | 0.00 | 0.00 | 41 | 1010.3 | |
| 20260507045027 | 21 | 0.0 | 0.0 | 0.00 | 0.00 | 0.00 | 40 | 1010.2 | |
| 20260507044029 | 21 | 0.0 | 0.0 | 0.00 | 0.00 | 0.00 | 39 | 1010.1 | |
| 20260507043031 | 21 | 0.0 | 0.0 | 0.00 | 0.00 | 0.00 | 38 | 1010.0 | |
| 20260507042027 | 21 | 0.0 | 0.0 | 0.00 | 0.00 | 0.00 | 38 | 1010.0 | |
| 20260507041017 | 22 | 0.0 | 0.0 | 0.00 | 0.00 | 0.00 | 37 | 1009.8 | |
| 20260507040019 | 22 | 0.0 | 0.0 | 0.00 | 0.00 | 0.00 | 37 | 1009.6 | |
| 20260507035016 | 23 | 0.0 | 0.0 | 0.00 | 0.00 | 0.00 | 36 | 1009.5 | |
| 20260507034019 | 23 | 0.0 | 0.0 | 0.00 | 0.00 | 0.00 | 35 | 1009.4 | |
| 20260507033021 | 24 | 0.0 | 0.0 | 0.00 | 0.00 | 0.00 | 34 | 1009.2 | |
| 20260507032022 | 25 | 0.0 | 0.0 | 0.00 | 0.00 | 0.00 | 32 | 1009.2 | |
| 20260507031025 | 25 | 0.0 | 0.0 | 0.00 | 0.00 | 0.00 | 31 | 1008.9 | |
| 20260507030027 | 26 | 0.0 | 0.0 | 0.00 | 0.00 | 0.00 | 30 | 1008.8 | |
| 20260507025029 | 26 | 0.0 | 0.0 | 0.00 | 0.00 | 0.00 | 30 | 1008.7 | |
| 20260507024031 | 26 | 0.0 | 0.0 | 0.00 | 0.00 | 0.00 | 29 | 1008.8 | |
| 20260507023015 | 26 | 0.0 | 0.0 | 0.00 | 0.00 | 0.00 | 29 | 1008.8 | |
| 20260507022018 | 26 | 0.0 | 0.0 | 0.00 | 0.00 | 0.00 | 29 | 1008.5 | |
| 20260507021020 | 27 | 82 | 3.2 | 9.7 | 0.00 | 0.00 | 0.00 | 29 | 1008.4 |
| 20260507020042 | 27 | 90 | 0.0 | 1.6 | 0.00 | 0.00 | 0.00 | 29 | 1008.4 |
| 20260507015024 | 27 | 0.0 | 1.6 | 0.00 | 0.00 | 0.00 | 29 | 1008.5 | |
| 20260507014026 | 27 | 115 | 3.2 | 11.3 | 0.00 | 0.00 | 0.00 | 29 | 1008.4 |
| 20260507013022 | 27 | 84 | 6.4 | 11.3 | 0.00 | 0.00 | 0.00 | 29 | 1008.3 |
| 20260507012018 | 28 | 0.0 | 0.0 | 0.00 | 0.00 | 0.00 | 28 | 1008.5 | |
| 20260507011033 | 28 | 0.0 | 0.0 | 0.00 | 0.00 | 0.00 | 27 | 1008.2 | |
| 20260507010017 | 29 | 80 | 8.0 | 14.5 | 0.00 | 0.00 | 0.00 | 27 | 1008.4 |
| 20260507005019 | 30 | 0.0 | 1.6 | 0.00 | 0.00 | 0.00 | 27 | 1008.4 | |
| 20260507004022 | 30 | 0.0 | 0.0 | 0.00 | 0.00 | 0.00 | 27 | 1008.3 | |
| 20260507003024 | 30 | 0.0 | 0.0 | 0.00 | 0.00 | 0.00 | 27 | 1008.2 | |
| 20260507002026 | 30 | 0.0 | 0.0 | 0.00 | 0.00 | 0.00 | 26 | 1008.2 | |
| 20260507001028 | 31 | 94 | 8.0 | 12.9 | 0.00 | 0.00 | 0.00 | 26 | 1008.4 |
| 20260507000030 | 31 | 113 | 1.6 | 12.9 | 0.00 | 0.00 | 0.00 | 26 | 1008.4 |
| 20260506235033 | 31 | 113 | 0.0 | 4.8 | 0.00 | 0.00 | 0.00 | 26 | 1008.4 |
| 20260506234029 | 31 | 68 | 3.2 | 11.3 | 0.00 | 0.00 | 0.00 | 26 | 1008.4 |
| 20260506233111 | 31 | 113 | 0.0 | 8.0 | 0.00 | 0.00 | 0.00 | 26 | 1008.4 |
| 20260506232015 | 31 | 0.0 | 0.0 | 0.00 | 0.00 | 0.00 | 26 | 1008.6 | |
| 20260506231018 | 31 | 84 | 4.8 | 9.7 | 0.00 | 0.00 | 0.00 | 26 | 1009.0 |
| 20260506230040 | 31 | 0.0 | 0.0 | 0.00 | 0.00 | 0.00 | 26 | 1008.8 | |
| 20260506225022 | 31 | 113 | 1.6 | 11.3 | 0.00 | 0.00 | 0.00 | 26 | 1009.1 |
| 20260506224018 | 31 | 0.0 | 0.0 | 0.00 | 0.00 | 0.00 | 26 | 1009.2 | |
| 20260506223026 | 31 | 0.0 | 0.0 | 0.00 | 0.00 | 0.00 | 27 | 1009.2 | |
| 20260506222028 | 31 | 110 | 3.2 | 11.3 | 0.00 | 0.00 | 0.00 | 26 | 1009.3 |
| 20260506221030 | 31 | 23 | 3.2 | 8.0 | 0.00 | 0.00 | 0.00 | 26 | 1009.5 |
| 20260506220032 | 31 | 95 | 8.0 | 12.9 | 0.00 | 0.00 | 0.00 | 26 | 1009.7 |
| 20260506215036 | 31 | 98 | 3.2 | 12.9 | 0.00 | 0.00 | 0.00 | 26 | 1009.8 |
| 20260506214018 | 32 | 94 | 6.4 | 12.9 | 0.00 | 0.00 | 0.00 | 26 | 1009.9 |
| 20260506213021 | 32 | 95 | 4.8 | 9.7 | 0.00 | 0.00 | 0.00 | 26 | 1010.0 |
| 20260506212023 | 31 | 64 | 1.6 | 6.4 | 0.00 | 0.00 | 0.00 | 26 | 1010.2 |
| 20260506211025 | 32 | 0.0 | 0.0 | 0.00 | 0.00 | 0.00 | 26 | 1010.4 | |
| 20260506210027 | 31 | 0.0 | 0.0 | 0.00 | 0.00 | 0.00 | 26 | 1010.6 | |
| 20260506205024 | 30 | 0.0 | 0.0 | 0.00 | 0.00 | 0.00 | 26 | 1010.7 | |
| 20260506204026 | 31 | 89 | 3.2 | 11.3 | 0.00 | 0.00 | 0.00 | 26 | 1010.8 |
| 20260506203028 | 31 | 113 | 1.6 | 8.0 | 0.00 | 0.00 | 0.00 | 26 | 1010.9 |
| 20260506202024 | 31 | 84 | 6.4 | 9.7 | 0.00 | 0.00 | 0.00 | 26 | 1011.1 |
| 20260506201020 | 31 | 97 | 3.2 | 9.7 | 0.00 | 0.00 | 0.00 | 27 | 1011.1 |
| 20260506200016 | 30 | 349 | 0.0 | 6.4 | 0.00 | 0.00 | 0.00 | 27 | 1011.2 |
| 20260506195019 | 30 | 71 | 4.8 | 12.9 | 0.00 | 0.00 | 0.00 | 27 | 1011.5 |
| 20260506194021 | 30 | 338 | 1.6 | 6.4 | 0.00 | 0.00 | 0.00 | 27 | 1011.6 |
| 20260506193023 | 30 | 78 | 1.6 | 4.8 | 0.00 | 0.00 | 0.00 | 28 | 1011.5 |
| 20260506192025 | 29 | 115 | 3.2 | 8.0 | 0.00 | 0.00 | 0.00 | 29 | 1011.4 |
| 20260506191023 | 29 | 0.0 | 0.0 | 0.00 | 0.00 | 0.00 | 29 | 1011.7 | |
| 20260506190024 | 29 | 87 | 6.4 | 11.3 | 0.00 | 0.00 | 0.00 | 28 | 1012.2 |
| 20260506185026 | 30 | 97 | 4.8 | 16.1 | 0.00 | 0.00 | 0.00 | 29 | 1012.0 |
| 20260506184028 | 28 | 102 | 1.6 | 6.4 | 0.00 | 0.00 | 0.00 | 29 | 1012.1 |
| 20260506183026 | 28 | 0.0 | 0.0 | 0.00 | 0.00 | 0.00 | 29 | 1012.3 | |
| 20260506182022 | 28 | 0 | 0.0 | 3.2 | 0.00 | 0.00 | 0.00 | 31 | 1012.5 |
| 20260506181044 | 28 | 79 | 3.2 | 12.9 | 0.00 | 0.00 | 0.00 | 31 | 1012.5 |
| 20260506180027 | 27 | 95 | 4.8 | 8.0 | 0.00 | 0.00 | 0.00 | 32 | 1012.5 |
| 20260506175029 | 27 | 113 | 1.6 | 8.0 | 0.00 | 0.00 | 0.00 | 32 | 1012.5 |
| 20260506174026 | 26 | 23 | 0.0 | 1.6 | 0.00 | 0.00 | 0.00 | 33 | 1012.6 |
| 20260506173022 | 26 | 97 | 3.2 | 8.0 | 0.00 | 0.00 | 0.00 | 34 | 1012.5 |
| 20260506172018 | 26 | 0.0 | 0.0 | 0.00 | 0.00 | 0.00 | 35 | 1012.6 | |
| 20260506171015 | 26 | 0.0 | 0.0 | 0.00 | 0.00 | 0.00 | 35 | 1012.6 | |
| 20260506170029 | 26 | 106 | 3.2 | 9.7 | 0.00 | 0.00 | 0.00 | 34 | 1012.7 |
| 20260506165032 | 25 | 76 | 4.8 | 9.7 | 0.00 | 0.00 | 0.00 | 35 | 1012.5 |
| 20260506164029 | 25 | 0.0 | 0.0 | 0.00 | 0.00 | 0.00 | 36 | 1012.4 | |
| 20260506163031 | 24 | 0.0 | 0.0 | 0.00 | 0.00 | 0.00 | 36 | 1012.4 | |
| 20260506162033 | 24 | 0.0 | 0.0 | 0.00 | 0.00 | 0.00 | 37 | 1012.2 | |
| 20260506161017 | 23 | 0.0 | 0.0 | 0.00 | 0.00 | 0.00 | 37 | 1012.5 | |
| 20260506160032 | 23 | 0.0 | 0.0 | 0.00 | 0.00 | 0.00 | 38 | 1012.6 | |
| 20260506155016 | 22 | 0.0 | 0.0 | 0.00 | 0.00 | 0.00 | 39 | 1012.5 | |
| 20260506154038 | 22 | 0.0 | 0.0 | 0.00 | 0.00 | 0.00 | 40 | 1012.6 | |
| 20260506153035 | 21 | 0.0 | 0.0 | 0.00 | 0.00 | 0.00 | 41 | 1012.8 | |
| 20260506152017 | 21 | 0.0 | 0.0 | 0.00 | 0.00 | 0.00 | 41 | 1012.7 | |
| 20260506151019 | 21 | 0.0 | 0.0 | 0.00 | 0.00 | 0.00 | 42 | 1012.6 | |
| 20260506150022 | 20 | 0.0 | 0.0 | 0.00 | 0.00 | 0.00 | 43 | 1012.4 | |
| 20260506145024 | 20 | 0.0 | 0.0 | 0.00 | 0.00 | 0.00 | 45 | 1012.4 | |
| 20260506144020 | 20 | 0.0 | 0.0 | 0.00 | 0.00 | 0.00 | 46 | 1012.4 |